Time,TemperatureF,DewpointF,PressureIn,WindDirection,WindDirectionDegrees,WindSpeedMPH,WindSpeedGustMPH,Humidity,HourlyPrecipIn,Conditions,Clouds,dailyrainin,SoftwareType,DateUTC
2013-04-04 00:00:00,31.6,17.7,30.30,South,169,0.0,0.0,56,0.00,CLR,,0.00,WeatherDisplay:10.37,2013-04-04 04:00:00,
2013-04-04 00:01:00,31.7,17.8,30.30,South,171,1.0,1.0,56,0.00,CLR,,0.00,WeatherDisplay:10.37,2013-04-04 04:01:00,
2013-04-04 00:03:00,31.7,17.8,30.30,South,171,1.1,1.1,56,0.00,CLR,,0.00,WeatherDisplay:10.37,2013-04-04 04:03:00,
2013-04-04 00:08:00,31.7,17.8,30.30,South,171,0.0,0.0,56,0.00,CLR,,0.00,WeatherDisplay:10.37,2013-04-04 04:08:00,
2013-04-04 00:13:00,31.6,17.7,30.29,South,169,4.6,4.6,56,0.00,CLR,,0.00,WeatherDisplay:10.37,2013-04-04 04:13:00,
2013-04-04 00:18:00,31.5,17.6,30.29,South,169,2.3,0.0,56,0.00,CLR,,0.00,WeatherDisplay:10.37,2013-04-04 04:18:00,
2013-04-04 00:23:00,31.5,17.6,30.29,South,171,3.5,3.5,56,0.00,CLR,,0.00,WeatherDisplay:10.37,2013-04-04 04:23:00,
2013-04-04 00:28:00,31.5,17.6,30.29,South,171,0.0,0.3,56,0.00,CLR,,0.00,WeatherDisplay:10.37,2013-04-04 04:28:00,
2013-04-04 00:33:00,31.5,17.6,30.29,South,171,1.1,0.0,56,0.00,CLR,,0.00,WeatherDisplay:10.37,2013-04-04 04:33:00,
2013-04-04 00:38:00,31.5,17.6,30.29,South,176,3.5,3.5,56,0.00,CLR,,0.00,WeatherDisplay:10.37,2013-04-04 04:38:00,
2013-04-04 00:43:00,31.5,17.6,30.29,South,179,3.5,3.5,56,0.00,CLR,,0.00,WeatherDisplay:10.37,2013-04-04 04:43:00,
2013-04-04 00:48:00,31.5,17.6,30.28,South,179,1.1,1.1,56,0.00,CLR,,0.00,WeatherDisplay:10.37,2013-04-04 04:48:00,
2013-04-04 00:53:00,31.4,17.5,30.29,South,187,4.0,4.0,56,0.00,CLR,,0.00,WeatherDisplay:10.37,2013-04-04 04:53:00,
2013-04-04 00:58:00,31.1,17.6,30.29,South,188,2.3,2.3,57,0.00,CLR,,0.00,WeatherDisplay:10.37,2013-04-04 04:58:00,
2013-04-04 01:03:00,31.1,17.6,30.28,SSW,192,3.5,3.5,57,0.00,CLR,,0.00,WeatherDisplay:10.37,2013-04-04 05:03:00,
2013-04-04 01:08:00,31.1,18.0,30.28,South,189,4.6,4.6,58,0.00,CLR,,0.00,WeatherDisplay:10.37,2013-04-04 05:08:00,
2013-04-04 01:13:00,31.0,17.9,30.28,South,190,2.3,2.3,58,0.00,CLR,,0.00,WeatherDisplay:10.37,2013-04-04 05:13:00,
2013-04-04 01:18:00,30.9,17.8,30.28,South,188,3.5,3.5,58,0.00,CLR,,0.00,WeatherDisplay:10.37,2013-04-04 05:18:00,
2013-04-04 01:23:00,30.7,18.1,30.28,South,188,0.0,0.5,59,0.00,CLR,,0.00,WeatherDisplay:10.37,2013-04-04 05:23:00,
2013-04-04 01:28:00,30.7,18.1,30.28,South,187,3.5,3.5,59,0.00,CLR,,0.00,WeatherDisplay:10.37,2013-04-04 05:28:00,
2013-04-04 01:33:00,30.6,18.0,30.28,South,186,1.1,1.1,59,0.00,CLR,,0.00,WeatherDisplay:10.37,2013-04-04 05:33:00,
2013-04-04 01:38:00,30.5,17.9,30.28,South,186,0.0,0.2,59,0.00,CLR,,0.00,WeatherDisplay:10.37,2013-04-04 05:38:00,
2013-04-04 01:43:00,30.4,17.8,30.28,South,187,1.0,1.0,59,0.00,CLR,,0.00,WeatherDisplay:10.37,2013-04-04 05:43:00,
2013-04-04 01:48:00,30.3,18.1,30.28,South,187,0.0,0.1,60,0.00,CLR,,0.00,WeatherDisplay:10.37,2013-04-04 05:48:00,
2013-04-04 01:53:00,30.2,18.0,30.28,South,187,1.1,0.0,60,0.00,CLR,,0.00,WeatherDisplay:10.37,2013-04-04 05:53:00,
2013-04-04 01:58:00,30.1,17.9,30.28,South,188,1.1,0.0,60,0.00,CLR,,0.00,WeatherDisplay:10.37,2013-04-04 05:58:00,
2013-04-04 02:03:00,30.0,17.8,30.28,South,187,2.3,2.3,60,0.00,CLR,,0.00,WeatherDisplay:10.37,2013-04-04 06:03:00,
2013-04-04 02:08:00,29.9,18.1,30.27,South,187,0.0,0.0,61,0.00,CLR,,0.00,WeatherDisplay:10.37,2013-04-04 06:08:00,
2013-04-04 02:13:00,29.7,17.9,30.27,South,187,3.5,0.0,61,0.00,CLR,,0.00,WeatherDisplay:10.37,2013-04-04 06:13:00,
2013-04-04 02:18:00,29.5,17.7,30.27,South,188,0.0,0.0,61,0.00,CLR,,0.00,WeatherDisplay:10.37,2013-04-04 06:18:00,
2013-04-04 02:23:00,29.2,17.8,30.27,South,187,0.0,0.0,62,0.00,CLR,,0.00,WeatherDisplay:10.37,2013-04-04 06:23:00,
2013-04-04 02:28:00,29.0,18.0,30.26,South,187,0.0,0.0,63,0.00,CLR,,0.00,WeatherDisplay:10.37,2013-04-04 06:28:00,
2013-04-04 02:33:00,28.9,17.9,30.26,South,187,2.3,0.0,63,0.00,CLR,,0.00,WeatherDisplay:10.37,2013-04-04 06:33:00,
2013-04-04 02:38:00,28.9,17.9,30.26,South,188,0.0,0.2,63,0.00,CLR,,0.00,WeatherDisplay:10.37,2013-04-04 06:38:00,
2013-04-04 02:43:00,28.8,18.1,30.26,South,187,2.3,2.3,64,0.00,CLR,,0.00,WeatherDisplay:10.37,2013-04-04 06:43:00,
2013-04-04 02:48:00,28.8,18.1,30.26,South,188,1.1,1.1,64,0.00,CLR,,0.00,WeatherDisplay:10.37,2013-04-04 06:48:00,
2013-04-04 02:53:00,28.7,18.1,30.26,South,188,1.1,0.0,64,0.00,CLR,,0.00,WeatherDisplay:10.37,2013-04-04 06:53:00,
2013-04-04 02:58:00,28.7,18.1,30.25,South,187,0.0,0.0,64,0.00,CLR,,0.00,WeatherDisplay:10.37,2013-04-04 06:58:00,
2013-04-04 03:03:00,28.6,18.0,30.25,South,188,0.0,0.0,64,0.00,CLR,,0.00,WeatherDisplay:10.37,2013-04-04 07:03:00,
2013-04-04 03:08:00,28.5,18.2,30.25,South,188,0.0,0.0,65,0.00,CLR,,0.00,WeatherDisplay:10.37,2013-04-04 07:08:00,
2013-04-04 03:13:00,28.4,18.1,30.25,South,188,0.0,0.0,65,0.00,CLR,,0.00,WeatherDisplay:10.37,2013-04-04 07:13:00,
2013-04-04 03:19:00,28.1,18.2,30.24,South,187,3.5,3.5,66,0.00,CLR,,0.00,WeatherDisplay:10.37,2013-04-04 07:19:00,
2013-04-04 03:24:00,28.1,18.2,30.24,South,187,1.0,0.0,66,0.00,CLR,,0.00,WeatherDisplay:10.37,2013-04-04 07:24:00,
2013-04-04 03:30:00,28.0,18.5,30.24,South,187,0.0,0.0,67,0.00,CLR,,0.00,WeatherDisplay:10.37,2013-04-04 07:30:00,
2013-04-04 03:35:00,28.0,18.5,30.24,South,188,0.0,0.0,67,0.00,CLR,,0.00,WeatherDisplay:10.37,2013-04-04 07:35:00,
2013-04-04 03:40:00,27.9,18.4,30.23,South,188,1.1,0.0,67,0.00,CLR,,0.00,WeatherDisplay:10.37,2013-04-04 07:40:00,
2013-04-04 03:45:00,27.9,18.7,30.23,South,188,0.0,0.0,68,0.00,CLR,,0.00,WeatherDisplay:10.37,2013-04-04 07:45:00,
2013-04-04 03:50:00,28.0,18.5,30.23,South,188,0.0,0.0,67,0.00,CLR,,0.00,WeatherDisplay:10.37,2013-04-04 07:50:00,
2013-04-04 03:55:00,28.0,18.5,30.23,South,188,1.1,1.1,67,0.00,CLR,,0.00,WeatherDisplay:10.37,2013-04-04 07:55:00,
2013-04-04 04:00:00,27.9,18.4,30.22,South,187,0.0,0.0,67,0.00,CLR,,0.00,WeatherDisplay:10.37,2013-04-04 08:00:00,
2013-04-04 04:05:00,27.9,18.7,30.22,South,188,0.0,0.0,68,0.00,CLR,,0.00,WeatherDisplay:10.37,2013-04-04 08:05:00,
2013-04-04 04:10:00,27.8,18.6,30.22,South,188,2.3,2.3,68,0.00,CLR,,0.00,WeatherDisplay:10.37,2013-04-04 08:10:00,
2013-04-04 04:15:00,27.7,18.5,30.22,South,188,2.3,2.3,68,0.00,CLR,,0.00,WeatherDisplay:10.37,2013-04-04 08:15:00,
2013-04-04 04:20:00,27.7,18.5,30.22,South,188,0.0,0.0,68,0.00,CLR,,0.00,WeatherDisplay:10.37,2013-04-04 08:20:00,
2013-04-04 04:25:00,27.6,18.4,30.22,South,188,0.0,0.0,68,0.00,CLR,,0.00,WeatherDisplay:10.37,2013-04-04 08:25:00,
2013-04-04 04:30:00,27.5,18.7,30.22,South,188,3.0,3.0,69,0.00,CLR,,0.00,WeatherDisplay:10.37,2013-04-04 08:30:00,
2013-04-04 04:35:00,27.5,18.7,30.22,South,188,2.0,2.0,69,0.00,CLR,,0.00,WeatherDisplay:10.37,2013-04-04 08:35:00,
2013-04-04 04:40:00,27.5,18.7,30.22,South,188,2.3,2.3,69,0.00,CLR,,0.00,WeatherDisplay:10.37,2013-04-04 08:40:00,
2013-04-04 04:45:00,27.5,18.7,30.22,South,189,0.0,0.0,69,0.00,CLR,,0.00,WeatherDisplay:10.37,2013-04-04 08:45:00,
2013-04-04 04:50:00,27.5,18.7,30.22,South,189,2.3,2.3,69,0.00,CLR,,0.00,WeatherDisplay:10.37,2013-04-04 08:50:00,
2013-04-04 04:55:00,27.5,19.0,30.22,South,189,3.5,3.5,70,0.00,CLR,,0.00,WeatherDisplay:10.37,2013-04-04 08:55:00,
2013-04-04 05:01:00,27.4,18.9,30.22,South,188,0.0,0.1,70,0.00,CLR,,0.00,WeatherDisplay:10.37,2013-04-04 09:01:00,
2013-04-04 05:07:00,27.4,18.9,30.21,South,188,3.5,3.5,70,0.00,CLR,,0.00,WeatherDisplay:10.37,2013-04-04 09:07:00,
2013-04-04 05:12:00,27.4,19.2,30.21,South,186,3.5,3.5,71,0.00,CLR,,0.00,WeatherDisplay:10.37,2013-04-04 09:12:00,
2013-04-04 05:17:00,27.4,19.2,30.21,SSW,193,5.0,5.0,71,0.00,CLR,,0.00,WeatherDisplay:10.37,2013-04-04 09:17:00,
2013-04-04 05:22:00,27.4,19.2,30.21,SSW,193,4.6,4.6,71,0.00,CLR,,0.00,WeatherDisplay:10.37,2013-04-04 09:22:00,
2013-04-04 05:27:00,27.4,19.2,30.21,SSW,198,3.5,3.5,71,0.00,CLR,,0.00,WeatherDisplay:10.37,2013-04-04 09:27:00,
2013-04-04 05:32:00,27.4,19.6,30.21,SSW,195,3.5,3.5,72,0.00,CLR,,0.00,WeatherDisplay:10.37,2013-04-04 09:32:00,
2013-04-04 05:37:00,27.4,19.6,30.21,SSW,195,3.5,3.5,72,0.00,CLR,,0.00,WeatherDisplay:10.37,2013-04-04 09:37:00,
2013-04-04 05:42:00,27.5,19.7,30.20,SSW,200,1.1,1.1,72,0.00,CLR,,0.00,WeatherDisplay:10.37,2013-04-04 09:42:00,
2013-04-04 05:47:00,27.5,19.7,30.20,SSW,197,5.0,5.0,72,0.00,CLR,,0.00,WeatherDisplay:10.37,2013-04-04 09:47:00,
2013-04-04 05:52:00,27.5,19.7,30.20,SSW,196,0.0,0.4,72,0.00,CLR,,0.00,WeatherDisplay:10.37,2013-04-04 09:52:00,
2013-04-04 05:57:00,27.5,19.7,30.21,SSW,195,0.0,0.0,72,0.00,CLR,,0.00,WeatherDisplay:10.37,2013-04-04 09:57:00,
2013-04-04 06:02:00,27.6,19.8,30.20,SSW,200,4.6,4.6,72,0.00,CLR,,0.00,WeatherDisplay:10.37,2013-04-04 10:02:00,
2013-04-04 06:08:00,27.6,19.8,30.20,SSW,199,3.0,3.0,72,0.00,CLR,,0.00,WeatherDisplay:10.37,2013-04-04 10:08:00,
2013-04-04 06:13:00,27.5,19.7,30.20,SSW,198,3.5,3.5,72,0.00,CLR,,0.00,WeatherDisplay:10.37,2013-04-04 10:13:00,
2013-04-04 06:18:00,27.6,19.4,30.20,SSW,195,3.5,3.5,71,0.00,CLR,,0.00,WeatherDisplay:10.37,2013-04-04 10:18:00,
2013-04-04 06:23:00,27.6,19.8,30.20,South,177,4.0,4.0,72,0.00,CLR,,0.00,WeatherDisplay:10.37,2013-04-04 10:23:00,
2013-04-04 06:28:00,27.5,19.7,30.20,South,180,3.5,3.5,72,0.00,CLR,,0.00,WeatherDisplay:10.37,2013-04-04 10:28:00,
2013-04-04 06:33:00,27.8,19.6,30.20,SSW,196,4.6,4.6,71,0.00,CLR,,0.00,WeatherDisplay:10.37,2013-04-04 10:33:00,
2013-04-04 06:38:00,27.8,19.6,30.20,SSW,199,4.6,4.6,71,0.00,CLR,,0.00,WeatherDisplay:10.37,2013-04-04 10:38:00,
2013-04-04 06:43:00,27.7,19.8,30.20,South,184,3.0,3.0,72,0.00,CLR,,0.00,WeatherDisplay:10.37,2013-04-04 10:43:00,
2013-04-04 06:48:00,27.6,19.8,30.19,South,183,5.0,5.0,72,0.00,CLR,,0.00,WeatherDisplay:10.37,2013-04-04 10:48:00,
2013-04-04 06:54:00,27.5,19.7,30.19,SSW,192,6.0,6.0,72,0.00,CLR,,0.00,WeatherDisplay:10.37,2013-04-04 10:54:00,
2013-04-04 06:59:00,27.4,19.9,30.19,South,186,2.3,2.3,73,0.00,CLR,,0.00,WeatherDisplay:10.37,2013-04-04 10:59:00,
2013-04-04 07:04:00,27.4,19.9,30.19,SSW,207,5.8,5.8,73,0.00,CLR,,0.00,WeatherDisplay:10.37,2013-04-04 11:04:00,
2013-04-04 07:10:00,27.4,19.9,30.19,SSW,196,3.5,3.5,73,0.00,CLR,,0.00,WeatherDisplay:10.37,2013-04-04 11:10:00,
2013-04-04 07:15:00,27.3,19.8,30.19,SSW,203,5.8,5.8,73,0.00,CLR,,0.00,WeatherDisplay:10.37,2013-04-04 11:15:00,
2013-04-04 07:20:00,27.3,19.8,30.19,South,189,6.9,6.9,73,0.00,CLR,,0.00,WeatherDisplay:10.37,2013-04-04 11:20:00,
2013-04-04 07:25:00,27.4,19.6,30.19,SSW,202,5.8,5.8,72,0.00,CLR,,0.00,WeatherDisplay:10.37,2013-04-04 11:25:00,
2013-04-04 07:30:00,27.5,19.7,30.19,SW,214,6.0,6.0,72,0.00,CLR,,0.00,WeatherDisplay:10.37,2013-04-04 11:30:00,
2013-04-04 07:35:00,27.6,19.4,30.18,South,186,3.5,3.5,71,0.00,CLR,,0.00,WeatherDisplay:10.37,2013-04-04 11:35:00,
2013-04-04 07:41:00,27.6,19.4,30.18,SSW,199,5.0,5.0,71,0.00,CLR,,0.00,WeatherDisplay:10.37,2013-04-04 11:41:00,
2013-04-04 07:46:00,27.7,19.2,30.18,South,186,3.5,3.5,70,0.00,CLR,,0.00,WeatherDisplay:10.37,2013-04-04 11:46:00,
2013-04-04 07:52:00,27.9,19.4,30.18,SSW,196,6.9,6.9,70,0.00,CLR,,0.00,WeatherDisplay:10.37,2013-04-04 11:52:00,
2013-04-04 07:57:00,28.0,19.5,30.18,SW,217,4.0,4.0,70,0.00,CLR,,0.00,WeatherDisplay:10.37,2013-04-04 11:57:00,
2013-04-04 08:02:00,28.2,19.3,30.17,SSW,202,9.2,9.2,69,0.00,CLR,,0.00,WeatherDisplay:10.37,2013-04-04 12:02:00,
2013-04-04 08:07:00,28.5,19.6,30.17,SSW,202,9.2,9.2,69,0.00,CLR,,0.00,WeatherDisplay:10.37,2013-04-04 12:07:00,
2013-04-04 08:12:00,28.6,19.7,30.17,South,182,5.8,5.8,69,0.00,CLR,,0.00,WeatherDisplay:10.37,2013-04-04 12:12:00,
2013-04-04 08:17:00,28.9,19.7,30.17,South,186,7.0,7.0,68,0.00,CLR,,0.00,WeatherDisplay:10.37,2013-04-04 12:17:00,
2013-04-04 08:22:00,29.2,19.6,30.17,South,188,5.8,5.8,67,0.00,CLR,,0.00,WeatherDisplay:10.37,2013-04-04 12:22:00,
2013-04-04 08:27:00,29.4,19.8,30.17,SSW,194,5.8,5.8,67,0.00,CLR,,0.00,WeatherDisplay:10.37,2013-04-04 12:27:00,
2013-04-04 08:32:00,29.7,19.7,30.17,SSW,209,5.0,5.0,66,0.00,CLR,,0.00,WeatherDisplay:10.37,2013-04-04 12:32:00,
2013-04-04 08:37:00,30.1,19.7,30.17,SSW,209,9.2,9.2,65,0.00,CLR,,0.00,WeatherDisplay:10.37,2013-04-04 12:37:00,
2013-04-04 08:42:00,30.6,19.9,30.17,SSW,202,6.9,6.9,64,0.00,CLR,,0.00,WeatherDisplay:10.37,2013-04-04 12:42:00,
2013-04-04 08:47:00,31.0,19.9,30.17,South,191,6.9,6.9,63,0.00,CLR,,0.00,WeatherDisplay:10.37,2013-04-04 12:47:00,
2013-04-04 08:52:00,31.5,20.0,30.17,South,187,10.0,10.0,62,0.00,CLR,,0.00,WeatherDisplay:10.37,2013-04-04 12:52:00,
2013-04-04 08:57:00,31.8,19.9,30.17,South,184,12.7,12.7,61,0.00,CLR,,0.00,WeatherDisplay:10.37,2013-04-04 12:57:00,
2013-04-04 09:02:00,32.3,20.0,30.16,SW,230,10.4,10.4,60,0.00,CLR,,0.00,WeatherDisplay:10.37,2013-04-04 13:02:00,
2013-04-04 09:07:00,32.7,19.9,30.16,SSW,192,5.8,5.8,59,0.00,CLR,,0.00,WeatherDisplay:10.37,2013-04-04 13:07:00,
2013-04-04 09:12:00,33.2,20.0,30.16,South,191,11.5,11.5,58,0.00,CLR,,0.00,WeatherDisplay:10.37,2013-04-04 13:12:00,
2013-04-04 09:17:00,33.6,20.0,30.15,South,183,13.0,13.0,57,0.00,CLR,,0.00,WeatherDisplay:10.37,2013-04-04 13:17:00,
2013-04-04 09:22:00,34.0,19.9,30.15,South,190,10.4,10.4,56,0.00,CLR,,0.00,WeatherDisplay:10.37,2013-04-04 13:22:00,
2013-04-04 09:27:00,34.4,19.9,30.15,South,177,11.5,11.5,55,0.00,CLR,,0.00,WeatherDisplay:10.37,2013-04-04 13:27:00,
2013-04-04 09:32:00,35.0,20.4,30.14,SW,214,11.5,11.5,55,0.00,CLR,,0.00,WeatherDisplay:10.37,2013-04-04 13:32:00,
2013-04-04 09:38:00,35.6,20.1,30.14,SSW,207,12.7,12.7,53,0.00,CLR,,0.00,WeatherDisplay:10.37,2013-04-04 13:38:00,
2013-04-04 09:43:00,36.1,20.2,30.13,SW,220,11.5,11.5,52,0.00,CLR,,0.00,WeatherDisplay:10.37,2013-04-04 13:43:00,
2013-04-04 09:48:00,36.7,20.3,30.13,SW,228,11.5,11.5,51,0.00,CLR,,0.00,WeatherDisplay:10.37,2013-04-04 13:48:00,
2013-04-04 09:53:00,37.3,20.8,30.13,WSW,241,10.4,10.4,51,0.00,CLR,,0.00,WeatherDisplay:10.37,2013-04-04 13:53:00,
2013-04-04 09:58:00,37.7,20.2,30.12,SSW,205,13.8,13.8,49,0.00,CLR,,0.00,WeatherDisplay:10.37,2013-04-04 13:58:00,
2013-04-04 10:03:00,37.9,20.4,30.11,WSW,238,12.7,12.7,49,0.00,CLR,,0.00,WeatherDisplay:10.37,2013-04-04 14:03:00,
2013-04-04 10:08:00,38.5,21.0,30.11,SSW,213,12.7,12.7,49,0.00,CLR,,0.00,WeatherDisplay:10.37,2013-04-04 14:08:00,
2013-04-04 10:14:00,38.8,20.3,30.11,SSW,209,16.1,16.1,47,0.00,CLR,,0.00,WeatherDisplay:10.37,2013-04-04 14:14:00,
2013-04-04 10:19:00,39.4,21.3,30.11,SW,227,4.6,4.6,48,0.00,CLR,,0.00,WeatherDisplay:10.37,2013-04-04 14:19:00,
2013-04-04 10:24:00,40.2,21.6,30.11,SW,217,5.8,5.8,47,0.00,CLR,,0.00,WeatherDisplay:10.37,2013-04-04 14:24:00,
2013-04-04 10:29:00,40.7,21.0,30.10,SSW,207,12.7,12.7,45,0.00,CLR,,0.00,WeatherDisplay:10.37,2013-04-04 14:29:00,
2013-04-04 10:34:00,41.1,21.3,30.10,SW,218,17.3,17.3,45,0.00,CLR,,0.00,WeatherDisplay:10.37,2013-04-04 14:34:00,
2013-04-04 10:39:00,41.1,21.3,30.10,SSW,209,16.0,16.0,45,0.00,CLR,,0.00,WeatherDisplay:10.37,2013-04-04 14:39:00,
2013-04-04 10:44:00,41.2,21.4,30.09,WSW,237,9.2,9.2,45,0.00,CLR,,0.00,WeatherDisplay:10.37,2013-04-04 14:44:00,
2013-04-04 10:49:00,41.5,21.2,30.09,SW,232,13.8,13.8,44,0.00,CLR,,0.00,WeatherDisplay:10.37,2013-04-04 14:49:00,
2013-04-04 10:54:00,41.9,21.5,30.09,WSW,241,16.1,16.1,44,0.00,CLR,,0.00,WeatherDisplay:10.37,2013-04-04 14:54:00,
2013-04-04 10:59:00,42.2,21.8,30.08,WSW,246,6.9,6.9,44,0.00,CLR,,0.00,WeatherDisplay:10.37,2013-04-04 14:59:00,
2013-04-04 11:04:00,42.6,21.6,30.08,SW,221,11.5,11.5,43,0.00,CLR,,0.00,WeatherDisplay:10.37,2013-04-04 15:04:00,
2013-04-04 11:10:00,42.9,22.5,30.08,WSW,243,15.0,15.0,44,0.00,CLR,,0.00,WeatherDisplay:10.37,2013-04-04 15:10:00,
2013-04-04 11:15:00,43.5,23.0,30.07,SSW,213,11.5,11.5,44,0.00,CLR,,0.00,WeatherDisplay:10.37,2013-04-04 15:15:00,
2013-04-04 11:20:00,43.7,22.6,30.07,SW,221,13.8,13.8,43,0.00,CLR,,0.00,WeatherDisplay:10.37,2013-04-04 15:20:00,
2013-04-04 11:25:00,44.4,23.3,30.07,WSW,251,8.1,8.1,43,0.00,CLR,,0.00,WeatherDisplay:10.37,2013-04-04 15:25:00,
2013-04-04 11:30:00,44.1,23.0,30.07,South,171,19.6,19.6,43,0.00,CLR,,0.00,WeatherDisplay:10.37,2013-04-04 15:30:00,
2013-04-04 11:35:00,43.9,22.3,30.07,SW,216,10.4,10.4,42,0.00,CLR,,0.00,WeatherDisplay:10.37,2013-04-04 15:35:00,
2013-04-04 11:40:00,44.5,23.4,30.06,WSW,239,11.5,11.5,43,0.00,CLR,,0.00,WeatherDisplay:10.37,2013-04-04 15:40:00,
2013-04-04 11:45:00,44.7,23.0,30.05,South,189,12.7,12.7,42,0.00,CLR,,0.00,WeatherDisplay:10.37,2013-04-04 15:45:00,
2013-04-04 11:52:00,45.0,23.3,30.05,West,272,11.5,11.5,42,0.00,CLR,,0.00,WeatherDisplay:10.37,2013-04-04 15:52:00,
2013-04-04 11:57:00,45.8,23.4,30.05,WSW,251,10.4,10.4,41,0.00,CLR,,0.00,WeatherDisplay:10.37,2013-04-04 15:57:00,
2013-04-04 12:02:00,46.0,24.7,30.05,SW,219,17.0,17.0,43,0.00,CLR,,0.00,WeatherDisplay:10.37,2013-04-04 16:02:00,
2013-04-04 12:07:00,46.3,25.0,30.05,SW,221,18.4,18.4,43,0.00,CLR,,0.00,WeatherDisplay:10.37,2013-04-04 16:07:00,
2013-04-04 12:12:00,46.1,23.1,30.04,SSW,203,17.3,17.3,40,0.00,CLR,,0.00,WeatherDisplay:10.37,2013-04-04 16:12:00,
2013-04-04 12:17:00,46.7,24.2,30.04,SSW,213,14.0,14.0,41,0.00,CLR,,0.00,WeatherDisplay:10.37,2013-04-04 16:17:00,
2013-04-04 12:22:00,47.2,23.5,30.04,SW,224,13.8,13.8,39,0.00,CLR,,0.00,WeatherDisplay:10.37,2013-04-04 16:22:00,
2013-04-04 12:28:00,47.2,23.5,30.04,WSW,245,13.8,13.8,39,0.00,CLR,,0.00,WeatherDisplay:10.37,2013-04-04 16:28:00,
2013-04-04 12:33:00,47.2,23.5,30.03,South,188,11.5,11.5,39,0.00,CLR,,0.00,WeatherDisplay:10.37,2013-04-04 16:33:00,
2013-04-04 12:38:00,47.5,23.7,30.03,WSW,257,20.7,20.7,39,0.00,CLR,,0.00,WeatherDisplay:10.37,2013-04-04 16:38:00,
2013-04-04 12:43:00,47.9,24.1,30.02,SSW,209,22.0,22.0,39,0.00,CLR,,0.00,WeatherDisplay:10.37,2013-04-04 16:43:00,
2013-04-04 12:48:00,48.0,23.6,30.02,SSW,210,16.1,16.1,38,0.00,CLR,,0.00,WeatherDisplay:10.37,2013-04-04 16:48:00,
2013-04-04 12:53:00,48.0,24.2,30.02,WSW,253,16.1,16.1,39,0.00,CLR,,0.00,WeatherDisplay:10.37,2013-04-04 16:53:00,
2013-04-04 12:58:00,49.0,23.8,30.02,West,261,16.0,16.0,37,0.00,CLR,,0.00,WeatherDisplay:10.37,2013-04-04 16:58:00,
2013-04-04 13:03:00,48.6,23.5,30.01,SW,217,15.0,15.0,37,0.00,CLR,,0.00,WeatherDisplay:10.37,2013-04-04 17:03:00,
2013-04-04 13:08:00,49.1,24.6,30.02,West,264,11.5,11.5,38,0.00,CLR,,0.00,WeatherDisplay:10.37,2013-04-04 17:08:00,
2013-04-04 13:13:00,49.2,24.6,30.01,South,180,13.8,13.8,38,0.00,CLR,,0.00,WeatherDisplay:10.37,2013-04-04 17:13:00,
2013-04-04 13:18:00,49.4,24.8,30.01,SW,229,13.0,13.0,38,0.00,CLR,,0.00,WeatherDisplay:10.37,2013-04-04 17:18:00,
2013-04-04 13:23:00,49.8,23.9,30.01,SW,229,19.6,19.6,36,0.00,CLR,,0.00,WeatherDisplay:10.37,2013-04-04 17:23:00,
2013-04-04 13:28:00,49.9,24.0,30.00,WSW,254,14.0,14.0,36,0.00,CLR,,0.00,WeatherDisplay:10.37,2013-04-04 17:28:00,
2013-04-04 13:33:00,50.1,24.8,30.00,WSW,240,17.3,17.3,37,0.00,CLR,,0.00,WeatherDisplay:10.37,2013-04-04 17:33:00,
2013-04-04 13:38:00,49.9,24.6,30.00,SW,230,11.5,11.5,37,0.00,CLR,,0.00,WeatherDisplay:10.37,2013-04-04 17:38:00,
2013-04-04 13:43:00,50.4,25.1,29.99,WSW,240,15.0,15.0,37,0.00,CLR,,0.00,WeatherDisplay:10.37,2013-04-04 17:43:00,
2013-04-04 13:48:00,50.6,25.3,29.99,SSW,203,18.4,18.4,37,0.00,CLR,,0.00,WeatherDisplay:10.37,2013-04-04 17:48:00,
2013-04-04 13:53:00,51.5,26.1,29.98,SW,223,16.1,16.1,37,0.00,CLR,,0.00,WeatherDisplay:10.37,2013-04-04 17:53:00,
2013-04-04 13:58:00,50.8,26.1,29.98,SW,219,16.1,16.1,38,0.00,CLR,,0.00,WeatherDisplay:10.37,2013-04-04 17:58:00,
2013-04-04 14:03:00,51.0,25.6,29.98,South,188,10.4,11.3,37,0.00,CLR,,0.00,WeatherDisplay:10.37,2013-04-04 18:03:00,
2013-04-04 14:08:00,50.9,26.2,29.98,West,261,16.1,16.1,38,0.00,CLR,,0.00,WeatherDisplay:10.37,2013-04-04 18:08:00,
2013-04-04 14:13:00,51.2,26.4,29.98,SW,222,12.7,12.7,38,0.00,CLR,,0.00,WeatherDisplay:10.37,2013-04-04 18:13:00,
2013-04-04 14:18:00,51.7,26.9,29.97,WSW,257,9.0,9.0,38,0.00,CLR,,0.00,WeatherDisplay:10.37,2013-04-04 18:18:00,
2013-04-04 14:23:00,51.5,26.1,29.96,SW,228,12.7,12.7,37,0.00,CLR,,0.00,WeatherDisplay:10.37,2013-04-04 18:23:00,
2013-04-04 14:28:00,51.7,26.9,29.96,SW,222,15.0,15.0,38,0.00,CLR,,0.00,WeatherDisplay:10.37,2013-04-04 18:28:00,
2013-04-04 14:33:00,51.7,28.1,29.96,SW,227,10.0,10.0,40,0.00,CLR,,0.00,WeatherDisplay:10.37,2013-04-04 18:33:00,
2013-04-04 14:38:00,52.0,27.8,29.95,WSW,252,18.0,18.0,39,0.00,CLR,,0.00,WeatherDisplay:10.37,2013-04-04 18:38:00,
2013-04-04 14:43:00,51.8,27.0,29.95,West,266,11.5,11.5,38,0.00,CLR,,0.00,WeatherDisplay:10.37,2013-04-04 18:43:00,
2013-04-04 14:48:00,52.0,27.1,29.95,SSW,200,19.6,19.6,38,0.00,CLR,,0.00,WeatherDisplay:10.37,2013-04-04 18:48:00,
2013-04-04 14:53:00,52.3,28.1,29.95,SW,214,12.7,12.7,39,0.00,CLR,,0.00,WeatherDisplay:10.37,2013-04-04 18:53:00,
2013-04-04 14:58:00,52.0,27.8,29.94,SW,232,20.0,20.0,39,0.00,CLR,,0.00,WeatherDisplay:10.37,2013-04-04 18:58:00,
2013-04-04 15:03:00,52.5,28.2,29.94,West,261,15.0,15.0,39,0.00,CLR,,0.00,WeatherDisplay:10.37,2013-04-04 19:03:00,
2013-04-04 15:08:00,52.5,27.6,29.94,SW,218,15.0,15.0,38,0.00,CLR,,0.00,WeatherDisplay:10.37,2013-04-04 19:08:00,
2013-04-04 15:13:00,52.5,27.6,29.94,WSW,241,13.8,13.8,38,0.00,CLR,,0.00,WeatherDisplay:10.37,2013-04-04 19:13:00,
2013-04-04 15:18:00,52.9,28.0,29.93,West,260,11.0,11.0,38,0.00,CLR,,0.00,WeatherDisplay:10.37,2013-04-04 19:18:00,
2013-04-04 15:23:00,52.8,27.9,29.93,SSW,207,16.1,16.1,38,0.00,CLR,,0.00,WeatherDisplay:10.37,2013-04-04 19:23:00,
2013-04-04 15:28:00,52.6,27.7,29.93,WSW,254,11.0,11.0,38,0.00,CLR,,0.00,WeatherDisplay:10.37,2013-04-04 19:28:00,
2013-04-04 15:33:00,52.6,27.7,29.92,SW,232,15.0,15.0,38,0.00,CLR,,0.00,WeatherDisplay:10.37,2013-04-04 19:33:00,
2013-04-04 15:38:00,52.6,27.7,29.92,SSW,199,17.3,17.3,38,0.00,CLR,,0.00,WeatherDisplay:10.37,2013-04-04 19:38:00,
2013-04-04 15:43:00,53.2,28.2,29.92,SW,232,18.4,18.4,38,0.00,CLR,,0.00,WeatherDisplay:10.37,2013-04-04 19:43:00,
2013-04-04 15:48:00,53.6,28.6,29.92,WSW,242,11.5,11.5,38,0.00,CLR,,0.00,WeatherDisplay:10.37,2013-04-04 19:48:00,
2013-04-04 15:53:00,53.6,27.9,29.91,SSW,211,13.0,13.0,37,0.00,CLR,,0.00,WeatherDisplay:10.37,2013-04-04 19:53:00,
2013-04-04 15:58:00,53.8,28.8,29.91,SSW,207,13.0,13.0,38,0.00,CLR,,0.00,WeatherDisplay:10.37,2013-04-04 19:58:00,
2013-04-04 16:03:00,53.5,27.8,29.91,SSW,210,19.6,19.6,37,0.00,CLR,,0.00,WeatherDisplay:10.37,2013-04-04 20:03:00,
2013-04-04 16:08:00,53.8,28.8,29.91,SW,217,8.1,8.1,38,0.00,CLR,,0.00,WeatherDisplay:10.37,2013-04-04 20:08:00,
2013-04-04 16:13:00,53.9,28.8,29.90,SW,230,19.6,19.6,38,0.00,CLR,,0.00,WeatherDisplay:10.37,2013-04-04 20:13:00,
2013-04-04 16:18:00,53.8,28.8,29.90,SW,235,17.3,17.3,38,0.00,CLR,,0.00,WeatherDisplay:10.37,2013-04-04 20:18:00,
2013-04-04 16:23:00,53.9,28.8,29.90,WSW,255,12.7,12.7,38,0.00,CLR,,0.00,WeatherDisplay:10.37,2013-04-04 20:23:00,
2013-04-04 16:28:00,54.2,29.1,29.90,WSW,245,9.0,9.0,38,0.00,CLR,,0.00,WeatherDisplay:10.37,2013-04-04 20:28:00,
2013-04-04 16:33:00,54.1,28.4,29.89,South,190,11.5,11.5,37,0.00,CLR,,0.00,WeatherDisplay:10.37,2013-04-04 20:33:00,
2013-04-04 16:38:00,54.7,28.9,29.89,West,259,6.9,6.9,37,0.00,CLR,,0.00,WeatherDisplay:10.37,2013-04-04 20:38:00,
2013-04-04 16:44:00,54.4,29.3,29.89,SW,234,16.1,16.1,38,0.00,CLR,,0.00,WeatherDisplay:10.37,2013-04-04 20:44:00,
2013-04-04 16:49:00,54.1,29.0,29.89,SW,227,19.6,19.6,38,0.00,CLR,,0.00,WeatherDisplay:10.37,2013-04-04 20:49:00,
2013-04-04 16:54:00,53.9,28.8,29.88,SW,232,13.8,13.8,38,0.00,CLR,,0.00,WeatherDisplay:10.37,2013-04-04 20:54:00,
2013-04-04 16:59:00,54.0,28.9,29.88,SSW,210,13.8,13.8,38,0.00,CLR,,0.00,WeatherDisplay:10.37,2013-04-04 20:59:00,
2013-04-04 17:04:00,54.2,29.1,29.88,SSW,192,12.7,12.7,38,0.00,CLR,,0.00,WeatherDisplay:10.37,2013-04-04 21:04:00,
2013-04-04 17:09:00,54.3,28.6,29.88,SSW,213,10.4,10.4,37,0.00,CLR,,0.00,WeatherDisplay:10.37,2013-04-04 21:09:00,
2013-04-04 17:14:00,54.2,29.1,29.88,SSW,205,11.5,11.5,38,0.00,CLR,,0.00,WeatherDisplay:10.37,2013-04-04 21:14:00,
2013-04-04 17:19:00,54.4,28.6,29.87,SSW,209,19.6,19.6,37,0.00,CLR,,0.00,WeatherDisplay:10.37,2013-04-04 21:19:00,
2013-04-04 17:24:00,54.0,28.9,29.87,SSW,198,9.2,9.2,38,0.00,CLR,,0.00,WeatherDisplay:10.37,2013-04-04 21:24:00,
2013-04-04 17:29:00,54.4,29.9,29.87,SSW,203,4.6,4.6,39,0.00,CLR,,0.00,WeatherDisplay:10.37,2013-04-04 21:29:00,
2013-04-04 17:34:00,54.5,28.7,29.87,SW,234,12.7,12.7,37,0.00,CLR,,0.00,WeatherDisplay:10.37,2013-04-04 21:34:00,
2013-04-04 17:40:00,54.0,28.9,29.87,SSW,195,19.6,19.6,38,0.00,CLR,,0.00,WeatherDisplay:10.37,2013-04-04 21:40:00,
2013-04-04 17:45:00,54.2,29.1,29.87,South,190,11.5,11.5,38,0.00,CLR,,0.00,WeatherDisplay:10.37,2013-04-04 21:45:00,
2013-04-04 17:50:00,54.5,29.4,29.87,SSE,165,6.9,6.9,38,0.00,CLR,,0.00,WeatherDisplay:10.37,2013-04-04 21:50:00,
2013-04-04 17:55:00,54.2,29.1,29.87,WSW,240,9.2,9.2,38,0.00,CLR,,0.00,WeatherDisplay:10.37,2013-04-04 21:55:00,
2013-04-04 18:00:00,54.3,28.6,29.87,SSW,212,17.3,17.3,37,0.00,CLR,,0.00,WeatherDisplay:10.37,2013-04-04 22:00:00,
2013-04-04 18:05:00,53.5,28.5,29.87,SW,223,12.7,12.7,38,0.00,CLR,,0.00,WeatherDisplay:10.37,2013-04-04 22:05:00,
2013-04-04 18:10:00,53.0,28.7,29.87,SW,226,9.2,9.2,39,0.00,CLR,,0.00,WeatherDisplay:10.37,2013-04-04 22:10:00,
2013-04-04 18:15:00,52.8,28.5,29.87,SSW,203,15.0,15.0,39,0.00,CLR,,0.00,WeatherDisplay:10.37,2013-04-04 22:15:00,
2013-04-04 18:20:00,52.8,28.5,29.88,South,175,13.8,13.8,39,0.00,CLR,,0.00,WeatherDisplay:10.37,2013-04-04 22:20:00,
2013-04-04 18:25:00,52.8,29.1,29.88,WSW,252,12.7,12.7,40,0.00,CLR,,0.00,WeatherDisplay:10.37,2013-04-04 22:25:00,
2013-04-04 18:30:00,52.5,28.2,29.88,WSW,248,7.0,7.0,39,0.00,CLR,,0.00,WeatherDisplay:10.37,2013-04-04 22:30:00,
2013-04-04 18:35:00,52.3,28.7,29.88,WSW,253,12.0,12.0,40,0.00,CLR,,0.00,WeatherDisplay:10.37,2013-04-04 22:35:00,
2013-04-04 18:40:00,52.1,28.5,29.88,SW,230,5.8,5.8,40,0.00,CLR,,0.00,WeatherDisplay:10.37,2013-04-04 22:40:00,
2013-04-04 18:45:00,51.9,28.3,29.89,SW,233,13.8,13.8,40,0.00,CLR,,0.00,WeatherDisplay:10.37,2013-04-04 22:45:00,
2013-04-04 18:50:00,51.8,28.2,29.89,SW,236,4.6,4.6,40,0.00,CLR,,0.00,WeatherDisplay:10.37,2013-04-04 22:50:00,
2013-04-04 18:55:00,51.6,28.0,29.89,SW,223,13.0,13.0,40,0.00,CLR,,0.00,WeatherDisplay:10.37,2013-04-04 22:55:00,
2013-04-04 19:00:00,51.5,28.6,29.89,SW,222,7.0,7.0,41,0.00,CLR,,0.00,WeatherDisplay:10.37,2013-04-04 23:00:00,
2013-04-04 19:05:00,51.4,28.5,29.89,WSW,241,9.2,9.2,41,0.00,CLR,,0.00,WeatherDisplay:10.37,2013-04-04 23:05:00,
2013-04-04 19:10:00,51.3,28.4,29.89,WSW,246,12.7,12.7,41,0.00,CLR,,0.00,WeatherDisplay:10.37,2013-04-04 23:10:00,
2013-04-04 19:15:00,51.1,28.2,29.89,SSW,199,4.6,4.6,41,0.00,CLR,,0.00,WeatherDisplay:10.37,2013-04-04 23:15:00,
2013-04-04 19:20:00,51.0,28.1,29.89,West,266,11.5,11.5,41,0.00,CLR,,0.00,WeatherDisplay:10.37,2013-04-04 23:20:00,
2013-04-04 19:25:00,50.9,28.0,29.89,SW,229,14.0,14.0,41,0.00,CLR,,0.00,WeatherDisplay:10.37,2013-04-04 23:25:00,
2013-04-04 19:30:00,50.9,28.0,29.89,SW,234,11.5,11.5,41,0.00,CLR,,0.00,WeatherDisplay:10.37,2013-04-04 23:30:00,
2013-04-04 19:35:00,50.8,27.9,29.89,SW,232,11.5,11.5,41,0.00,CLR,,0.00,WeatherDisplay:10.37,2013-04-04 23:35:00,
2013-04-04 19:40:00,50.6,27.7,29.89,SW,226,4.6,4.6,41,0.00,CLR,,0.00,WeatherDisplay:10.37,2013-04-04 23:40:00,
2013-04-04 19:45:00,50.5,27.7,29.89,SW,221,5.8,5.8,41,0.00,CLR,,0.00,WeatherDisplay:10.37,2013-04-04 23:45:00,
2013-04-04 19:50:00,50.4,28.1,29.89,SSW,194,8.1,8.1,42,0.00,CLR,,0.00,WeatherDisplay:10.37,2013-04-04 23:50:00,
2013-04-04 19:55:00,50.3,28.1,29.90,SW,222,10.4,10.4,42,0.00,CLR,,0.00,WeatherDisplay:10.37,2013-04-04 23:55:00,
2013-04-04 20:00:00,50.3,28.6,29.90,SW,234,9.2,9.2,43,0.00,CLR,,0.00,WeatherDisplay:10.37,2013-04-05 00:00:00,
2013-04-04 20:05:00,50.2,28.5,29.90,SW,227,6.9,6.9,43,0.00,CLR,,0.00,WeatherDisplay:10.37,2013-04-05 00:05:00,
2013-04-04 20:10:00,50.0,28.9,29.90,WNW,302,11.5,11.5,44,0.00,CLR,,0.00,WeatherDisplay:10.37,2013-04-05 00:10:00,
2013-04-04 20:15:00,49.7,29.2,29.90,WSW,250,5.0,5.0,45,0.00,CLR,,0.00,WeatherDisplay:10.37,2013-04-05 00:15:00,
2013-04-04 20:20:00,49.5,29.6,29.90,WNW,294,6.9,6.9,46,0.00,CLR,,0.00,WeatherDisplay:10.37,2013-04-05 00:20:00,
2013-04-04 20:25:00,49.1,29.7,29.91,WSW,254,15.0,15.0,47,0.00,CLR,,0.00,WeatherDisplay:10.37,2013-04-05 00:25:00,
2013-04-04 20:31:00,48.6,30.3,29.91,WSW,255,3.0,3.0,49,0.00,CLR,,0.00,WeatherDisplay:10.37,2013-04-05 00:31:00,
2013-04-04 20:36:00,48.0,30.7,29.92,West,259,6.0,6.0,51,0.00,CLR,,0.00,WeatherDisplay:10.37,2013-04-05 00:36:00,
2013-04-04 20:41:00,47.6,30.8,29.92,West,260,5.8,5.8,52,0.00,CLR,,0.00,WeatherDisplay:10.37,2013-04-05 00:41:00,
2013-04-04 20:47:00,47.2,31.4,29.92,WSW,252,4.6,4.6,54,0.00,CLR,,0.00,WeatherDisplay:10.37,2013-04-05 00:47:00,
2013-04-04 20:52:00,46.9,31.6,29.92,West,265,2.0,0.0,55,0.00,CLR,,0.00,WeatherDisplay:10.37,2013-04-05 00:52:00,
2013-04-04 20:57:00,46.6,31.7,29.92,WSW,253,4.6,0.0,56,0.00,CLR,,0.00,WeatherDisplay:10.37,2013-04-05 00:57:00,
2013-04-04 21:02:00,46.4,32.0,29.92,West,275,4.6,4.6,57,0.00,CLR,,0.00,WeatherDisplay:10.37,2013-04-05 01:02:00,
2013-04-04 21:07:00,46.2,31.8,29.92,WSW,246,1.1,0.0,57,0.00,CLR,,0.00,WeatherDisplay:10.37,2013-04-05 01:07:00,
2013-04-04 21:12:00,46.0,32.0,29.92,WSW,245,3.5,3.5,58,0.00,CLR,,0.00,WeatherDisplay:10.37,2013-04-05 01:12:00,
2013-04-04 21:17:00,45.9,31.9,29.92,West,260,5.8,5.8,58,0.00,CLR,,0.00,WeatherDisplay:10.37,2013-04-05 01:17:00,
2013-04-04 21:22:00,45.7,32.2,29.92,West,263,1.1,0.0,59,0.00,CLR,,0.00,WeatherDisplay:10.37,2013-04-05 01:22:00,
2013-04-04 21:27:00,45.6,32.1,29.92,West,261,0.0,0.0,59,0.00,CLR,,0.00,WeatherDisplay:10.37,2013-04-05 01:27:00,
2013-04-04 21:32:00,45.4,31.9,29.93,West,262,1.1,1.1,59,0.00,CLR,,0.00,WeatherDisplay:10.37,2013-04-05 01:32:00,
2013-04-04 21:37:00,45.3,32.2,29.93,West,261,1.1,0.0,60,0.00,CLR,,0.00,WeatherDisplay:10.37,2013-04-05 01:37:00,
2013-04-04 21:42:00,45.2,32.5,29.93,West,263,0.0,0.0,61,0.00,CLR,,0.00,WeatherDisplay:10.37,2013-04-05 01:42:00,
2013-04-04 21:47:00,45.0,32.3,29.93,West,263,1.1,0.0,61,0.00,CLR,,0.00,WeatherDisplay:10.37,2013-04-05 01:47:00,
2013-04-04 21:52:00,44.8,32.2,29.94,West,263,1.0,1.0,61,0.00,CLR,,0.00,WeatherDisplay:10.37,2013-04-05 01:52:00,
2013-04-04 21:57:00,44.4,32.2,29.93,West,263,1.1,1.1,62,0.00,CLR,,0.00,WeatherDisplay:10.37,2013-04-05 01:57:00,
2013-04-04 22:02:00,44.1,31.9,29.93,West,263,0.0,0.0,62,0.00,CLR,,0.00,WeatherDisplay:10.37,2013-04-05 02:02:00,
2013-04-04 22:07:00,43.8,32.0,29.93,West,263,0.0,0.0,63,0.00,CLR,,0.00,WeatherDisplay:10.37,2013-04-05 02:07:00,
2013-04-04 22:12:00,43.4,32.0,29.93,West,263,0.0,0.0,64,0.00,CLR,,0.00,WeatherDisplay:10.37,2013-04-05 02:12:00,
2013-04-04 22:17:00,43.1,31.7,29.93,West,263,0.0,0.0,64,0.00,CLR,,0.00,WeatherDisplay:10.37,2013-04-05 02:17:00,
2013-04-04 22:22:00,42.7,31.7,29.93,West,263,0.0,0.0,65,0.00,CLR,,0.00,WeatherDisplay:10.37,2013-04-05 02:22:00,
2013-04-04 22:28:00,42.4,31.5,29.93,West,263,0.0,0.0,65,0.00,CLR,,0.00,WeatherDisplay:10.37,2013-04-05 02:28:00,
2013-04-04 22:33:00,42.1,31.6,29.93,West,263,0.0,0.0,66,0.00,CLR,,0.00,WeatherDisplay:10.37,2013-04-05 02:33:00,
2013-04-04 22:38:00,41.8,31.3,29.93,West,263,0.0,0.0,66,0.00,CLR,,0.00,WeatherDisplay:10.37,2013-04-05 02:38:00,
2013-04-04 22:43:00,41.6,31.4,29.93,West,263,0.0,0.0,67,0.00,CLR,,0.00,WeatherDisplay:10.37,2013-04-05 02:43:00,
2013-04-04 22:48:00,41.5,31.7,29.93,West,263,0.0,0.0,68,0.00,CLR,,0.00,WeatherDisplay:10.37,2013-04-05 02:48:00,
2013-04-04 22:53:00,41.2,31.4,29.93,West,263,0.0,0.0,68,0.00,CLR,,0.00,WeatherDisplay:10.37,2013-04-05 02:53:00,
2013-04-04 22:58:00,40.9,31.5,29.93,West,263,0.0,0.0,69,0.00,CLR,,0.00,WeatherDisplay:10.37,2013-04-05 02:58:00,
2013-04-04 23:03:00,40.6,31.2,29.93,West,263,0.0,0.0,69,0.00,CLR,,0.00,WeatherDisplay:10.37,2013-04-05 03:03:00,
2013-04-04 23:08:00,40.3,31.3,29.93,West,263,0.0,0.0,70,0.00,CLR,,0.00,WeatherDisplay:10.37,2013-04-05 03:08:00,
2013-04-04 23:13:00,40.1,31.4,29.93,West,263,0.0,0.0,71,0.00,CLR,,0.00,WeatherDisplay:10.37,2013-04-05 03:13:00,
2013-04-04 23:18:00,39.8,31.2,29.93,West,263,0.0,0.0,71,0.00,CLR,,0.00,WeatherDisplay:10.37,2013-04-05 03:18:00,
2013-04-04 23:23:00,39.5,31.2,29.93,West,263,0.0,0.0,72,0.00,CLR,,0.00,WeatherDisplay:10.37,2013-04-05 03:23:00,
2013-04-04 23:28:00,39.2,30.9,29.93,West,263,0.0,0.0,72,0.00,CLR,,0.00,WeatherDisplay:10.37,2013-04-05 03:28:00,
2013-04-04 23:33:00,38.9,31.0,29.93,West,263,1.1,0.0,73,0.00,CLR,,0.00,WeatherDisplay:10.37,2013-04-05 03:33:00,
2013-04-04 23:38:00,38.7,31.1,29.94,West,263,0.0,0.0,74,0.00,CLR,,0.00,WeatherDisplay:10.37,2013-04-05 03:38:00,
2013-04-04 23:43:00,38.4,31.2,29.93,West,263,0.0,0.0,75,0.00,CLR,,0.00,WeatherDisplay:10.37,2013-04-05 03:43:00,
2013-04-04 23:48:00,38.1,31.2,29.93,West,263,0.0,0.0,76,0.00,CLR,,0.00,WeatherDisplay:10.37,2013-04-05 03:48:00,
2013-04-04 23:53:00,37.8,31.2,29.94,West,263,1.1,0.0,77,0.00,CLR,,0.00,WeatherDisplay:10.37,2013-04-05 03:53:00,
2013-04-04 23:58:00,37.6,31.4,29.93,West,263,0.0,0.0,78,0.00,CLR,,0.00,WeatherDisplay:10.37,2013-04-05 03:58:00,